When you browse on this site, cookies collect data to enhance your experience and personalize the content and advertising you see.
Visit our Privacy Policy to learn more. By continuing to use the site, you agree to this use of cookies and data.
  • In Switzerland
  • List of Countries
  • For 7 days
  • Water Temperature
  • Satellite Maps
  • Weather Map
  • Weather Widgets
  • user-avatar
    Login

    Hourly Weather Fellbach

    Today, 22 July, Monday

    Time Temperature Precipitation Wind Pressure Humidity
    00:00 +20°C° 0 mm 1 mps 740 mmHg 78%
    01:00 +20°C° 0 mm 1 mps 740 mmHg 79%
    02:00 +19°C° 0 mm 1 mps 740 mmHg 81%
    03:00 +17°C° 0 mm 0 mps 740 mmHg 82%
    04:00 +17°C° 0 mm 0 mps 740 mmHg 83%
    05:00 +18°C° 0 mm 0 mps 740 mmHg 81%
    06:00 +18°C° 0 mm 0 mps 740 mmHg 78%
    07:00 +19°C° 0 mm 0 mps 740 mmHg 76%
    08:00 +21°C° 0 mm 0 mps 740 mmHg 70%
    09:00 +23°C° 0 mm 0 mps 740 mmHg 64%
    10:00 +25°C° 0 mm 0 mps 741 mmHg 57%
    11:00 +28°C° 0 mm 1 mps 740 mmHg 54%
    12:00 +29°C° 0 mm 1 mps 740 mmHg 50%
    13:00 +30°C° 0 mm 1 mps 740 mmHg 47%
    14:00 +29°C° 0 mm 1 mps 740 mmHg 46%
    15:00 +29°C° 0 mm 1 mps 740 mmHg 46%
    16:00 +29°C° 0 mm 1 mps 740 mmHg 45%
    17:00 +28°C° 0 mm 1 mps 740 mmHg 50%
    18:00 +27°C° 0 mm 1 mps 739 mmHg 55%
    19:00 +26°C° 0 mm 1 mps 739 mmHg 60%
    20:00 +24°C° 0 mm 1 mps 739 mmHg 64%
    21:00 +23°C° 0 mm 1 mps 740 mmHg 69%
    22:00 +22°C° 0 mm 1 mps 740 mmHg 73%
    23:00 +21°C° 0 mm 1 mps 740 mmHg 76%

    Tomorrow, 23 July, Tuesday

    Time Temperature Precipitation Wind Pressure Humidity
    00:00 +21°C° 0 mm 1 mps 739 mmHg 78%
    01:00 +20°C° 0 mm 1 mps 739 mmHg 81%
    02:00 +20°C° 0 mm 1 mps 739 mmHg 82%
    03:00 +19°C° 0 mm 1 mps 739 mmHg 83%
    04:00 +19°C° 0 mm 1 mps 739 mmHg 84%
    05:00 +20°C° 0 mm 1 mps 739 mmHg 81%
    06:00 +21°C° 0 mm 1 mps 739 mmHg 78%
    07:00 +22°C° 0 mm 1 mps 738 mmHg 75%
    08:00 +24°C° 0 mm 1 mps 739 mmHg 68%
    09:00 +26°C° 0 mm 1 mps 739 mmHg 62%
    10:00 +28°C° 0 mm 2 mps 739 mmHg 55%
    11:00 +29°C° 0 mm 2 mps 738 mmHg 52%
    12:00 +30°C° 0 mm 2 mps 738 mmHg 48%
    13:00 +31°C° 0 mm 2 mps 738 mmHg 44%
    14:00 +31°C° 0 mm 2 mps 737 mmHg 45%
    15:00 +31°C° 0 mm 2 mps 737 mmHg 46%
    16:00 +31°C° 0 mm 2 mps 737 mmHg 46%
    17:00 +30°C° 0 mm 2 mps 736 mmHg 52%
    18:00 +29°C° 0 mm 2 mps 736 mmHg 59%
    19:00 +28°C° 0 mm 2 mps 736 mmHg 65%
    20:00 +26°C° 0 mm 2 mps 736 mmHg 68%
    21:00 +24°C° 0 mm 1 mps 736 mmHg 72%
    22:00 +23°C° 0 mm 1 mps 736 mmHg 75%
    23:00 +22°C° 0 mm 1 mps 736 mmHg 77%

    Day after tomorrow, 24 July, Wednesday

    Time Temperature Precipitation Wind Pressure Humidity
    00:00 +21°C° 0 mm 1 mps 736 mmHg 79%
    01:00 +21°C° 0 mm 1 mps 735 mmHg 80%
    02:00 +20°C° 0 mm 1 mps 735 mmHg 82%
    03:00 +20°C° 0 mm 1 mps 735 mmHg 83%
    04:00 +20°C° 0 mm 1 mps 735 mmHg 84%
    05:00 +21°C° 0 mm 1 mps 735 mmHg 82%
    06:00 +22°C° 0 mm 1 mps 735 mmHg 79%
    07:00 +23°C° 0 mm 1 mps 735 mmHg 76%
    08:00 +25°C° 0 mm 1 mps 735 mmHg 69%
    09:00 +27°C° 0 mm 1 mps 735 mmHg 62%
    10:00 +29°C° 0 mm 1 mps 735 mmHg 55%
    11:00 +31°C° 0 mm 1 mps 735 mmHg 50%
    12:00 +32°C° 0 mm 1 mps 735 mmHg 46%
    13:00 +34°C° 0 mm 1 mps 735 mmHg 41%
    14:00 +34°C° 0 mm 1 mps 735 mmHg 40%
    15:00 +34°C° 0 mm 1 mps 735 mmHg 39%
    16:00 +34°C° 0 mm 1 mps 735 mmHg 38%
    17:00 +33°C° 0 mm 1 mps 734 mmHg 47%
    18:00 +31°C° 0 mm 2 mps 734 mmHg 56%
    19:00 +29°C° 0 mm 2 mps 734 mmHg 65%
    20:00 +28°C° 0 mm 2 mps 734 mmHg 70%
    21:00 +26°C° 0 mm 1 mps 735 mmHg 75%
    22:00 +25°C° 0 mm 1 mps 735 mmHg 80%
    23:00 +24°C° 0 mm 1 mps 735 mmHg 80%

    25 July, Thursday

    Time Temperature Precipitation Wind Pressure Humidity
    00:00 +23°C° 0 mm 1 mps 735 mmHg 81%
    01:00 +23°C° 0 mm 1 mps 734 mmHg 82%
    02:00 +22°C° 0 mm 1 mps 734 mmHg 82%
    03:00 +22°C° 0 mm 1 mps 734 mmHg 82%
    04:00 +21°C° 0 mm 1 mps 734 mmHg 81%
    05:00 +22°C° 0 mm 1 mps 734 mmHg 78%
    06:00 +23°C° 0 mm 2 mps 734 mmHg 75%
    07:00 +24°C° 0 mm 2 mps 734 mmHg 72%
    08:00 +26°C° 0 mm 2 mps 734 mmHg 65%
    09:00 +28°C° 0 mm 2 mps 734 mmHg 59%
    10:00 +30°C° 0 mm 3 mps 734 mmHg 52%
    11:00 +31°C° 0 mm 3 mps 734 mmHg 50%
    12:00 +33°C° 0 mm 3 mps 734 mmHg 47%
    13:00 +34°C° 0 mm 3 mps 733 mmHg 44%
    14:00 +34°C° 0 mm 3 mps 733 mmHg 46%
    15:00 +34°C° 0 mm 3 mps 733 mmHg 48%
    16:00 +34°C° 0 mm 3 mps 732 mmHg 49%
    17:00 +33°C° 0 mm 3 mps 732 mmHg 56%
    18:00 +31°C° 0 mm 3 mps 732 mmHg 62%
    19:00 +30°C° 0 mm 3 mps 732 mmHg 68%
    20:00 +28°C° 0 mm 2 mps 732 mmHg 71%
    21:00 +26°C° 0 mm 2 mps 732 mmHg 74%
    22:00 +25°C° 0 mm 2 mps 732 mmHg 77%
    23:00 +24°C° 0 mm 2 mps 732 mmHg 78%

    26 July, Friday

    Time Temperature Precipitation Wind Pressure Humidity
    00:00 +24°C° 0 mm 2 mps 732 mmHg 79%
    01:00 +23°C° 0 mm 2 mps 732 mmHg 80%
    02:00 +23°C° 0 mm 2 mps 731 mmHg 81%
    03:00 +21°C° 0 mm 2 mps 731 mmHg 82%
    04:00 +22°C° 0 mm 1 mps 731 mmHg 83%
    05:00 +23°C° 0 mm 1 mps 731 mmHg 80%
    06:00 +24°C° 0 mm 1 mps 731 mmHg 77%
    07:00 +24°C° 0 mm 1 mps 731 mmHg 74%
    08:00 +27°C° 0 mm 1 mps 731 mmHg 67%
    09:00 +27°C° 0 mm 0 mps 731 mmHg 60%
    10:00 +30°C° 0 mm 0 mps 731 mmHg 52%
    11:00 +33°C° 0.1 mm 1 mps 731 mmHg 49%
    12:00 +34°C° 0.1 mm 2 mps 731 mmHg 47%
    13:00 +35°C° 0.1 mm 3 mps 731 mmHg 44%
    14:00 +35°C° 0.1 mm 2 mps 730 mmHg 45%
    15:00 +35°C° 0.1 mm 2 mps 730 mmHg 45%
    16:00 +34°C° 0.1 mm 2 mps 730 mmHg 46%
    17:00 +32°C° 0.2 mm 2 mps 730 mmHg 53%
    18:00 +30°C° 0.2 mm 1 mps 730 mmHg 59%
    19:00 +29°C° 0.2 mm 1 mps 730 mmHg 66%
    20:00 +27°C° 1.1 mm 2 mps 730 mmHg 71%
    21:00 +25°C° 1.1 mm 3 mps 731 mmHg 77%
    22:00 +22°C° 1.1 mm 3 mps 731 mmHg 82%
    23:00 +22°C° 0.1 mm 3 mps 731 mmHg 83%

    27 July, Saturday

    Time Temperature Precipitation Wind Pressure Humidity
    00:00 +23°C° 0.1 mm 2 mps 731 mmHg 83%
    01:00 +23°C° 0.1 mm 2 mps 731 mmHg 84%
    02:00 +21°C° 0.1 mm 2 mps 731 mmHg 86%
    03:00 +21°C° 0.1 mm 2 mps 731 mmHg 89%
    04:00 +21°C° 0.1 mm 2 mps 731 mmHg 91%
    05:00 +21°C° 0.1 mm 2 mps 731 mmHg 90%
    06:00 +21°C° 0.1 mm 3 mps 731 mmHg 89%
    07:00 +21°C° 0.1 mm 3 mps 732 mmHg 88%
    08:00 +21°C° 0.2 mm 3 mps 732 mmHg 87%
    09:00 +21°C° 0.2 mm 2 mps 732 mmHg 85%
    10:00 +21°C° 0.2 mm 2 mps 732 mmHg 84%
    11:00 +22°C° 0.1 mm 3 mps 732 mmHg 80%
    12:00 +24°C° 0.1 mm 3 mps 732 mmHg 75%
    13:00 +25°C° 0.1 mm 4 mps 732 mmHg 70%
    14:00 +23°C° 0.6 mm 4 mps 732 mmHg 75%
    15:00 +22°C° 0.6 mm 4 mps 732 mmHg 80%
    16:00 +21°C° 0.6 mm 4 mps 732 mmHg 84%
    17:00 +20°C° 1.3 mm 3 mps 733 mmHg 87%
    18:00 +19°C° 1.3 mm 3 mps 733 mmHg 90%
    19:00 +19°C° 1.3 mm 2 mps 733 mmHg 93%
    20:00 +19°C° 0.6 mm 2 mps 733 mmHg 93%
    21:00 +18°C° 0.6 mm 2 mps 734 mmHg 92%
    22:00 +18°C° 0.6 mm 2 mps 734 mmHg 92%
    23:00 +19°C° 0.1 mm 1 mps 734 mmHg 92%
    Show more